Time,TemperatureF,DewpointF,PressureIn,WindDirection,WindDirectionDegrees,WindSpeedMPH,WindSpeedGustMPH,Humidity,HourlyPrecipIn,Conditions,Clouds,dailyrainin,SoftwareType,DateUTC
2013-03-25 00:02:00,29.0,27.0,-100.00,NNW,335,13.0,17.0,94,0.00,,,0.00,,2013-03-25 00:02:00,
2013-03-25 00:12:00,29.0,27.0,-100.00,NNW,330,12.0,17.0,93,0.00,,,0.00,,2013-03-25 00:12:00,
2013-03-25 00:22:00,29.0,27.0,-100.00,NNW,330,14.0,18.0,92,0.00,,,0.00,,2013-03-25 00:22:00,
2013-03-25 00:32:00,29.0,27.0,-100.00,NW,325,14.0,18.0,90,0.00,,,0.00,,2013-03-25 00:32:00,
2013-03-25 00:42:00,28.0,27.0,-100.00,NW,325,14.0,17.0,89,0.00,,,0.00,,2013-03-25 00:42:00,
2013-03-25 00:52:00,28.0,25.0,-100.00,NNW,330,14.0,17.0,88,0.00,,,0.00,,2013-03-25 00:52:00,
2013-03-25 01:02:00,28.0,25.0,-100.00,NNW,330,13.0,17.0,87,0.00,,,0.00,,2013-03-25 01:02:00,
2013-03-25 01:22:00,28.0,25.0,-100.00,NW,325,13.0,18.0,88,0.00,,,0.00,,2013-03-25 01:22:00,
2013-03-25 01:32:00,27.0,25.0,-100.00,NW,325,13.0,19.0,88,0.00,,,0.00,,2013-03-25 01:32:00,
2013-03-25 01:42:00,27.0,25.0,-100.00,NW,325,15.0,19.0,89,0.00,,,0.00,,2013-03-25 01:42:00,
2013-03-25 01:52:00,27.0,25.0,-100.00,NW,325,14.0,19.0,90,0.00,,,0.00,,2013-03-25 01:52:00,
2013-03-25 02:02:00,27.0,25.0,-100.00,NW,325,14.0,18.0,90,0.00,,,0.00,,2013-03-25 02:02:00,
2013-03-25 02:12:00,27.0,25.0,-100.00,NW,325,14.0,17.0,90,0.00,,,0.00,,2013-03-25 02:12:00,
2013-03-25 02:22:00,27.0,25.0,-100.00,NW,325,15.0,19.0,90,0.00,,,0.00,,2013-03-25 02:22:00,
2013-03-25 02:32:00,27.0,25.0,-100.00,NNW,330,13.0,18.0,90,0.00,,,0.00,,2013-03-25 02:32:00,
2013-03-25 02:42:00,27.0,25.0,-100.00,NNW,330,13.0,19.0,90,0.00,,,0.00,,2013-03-25 02:42:00,
2013-03-25 02:52:00,27.0,25.0,-100.00,NNW,330,14.0,19.0,90,0.00,,,0.00,,2013-03-25 02:52:00,
2013-03-25 03:02:00,27.0,25.0,-100.00,NNW,340,13.0,17.0,90,0.00,,,0.00,,2013-03-25 03:02:00,
2013-03-25 03:12:00,27.0,25.0,-100.00,NNW,330,15.0,18.0,90,0.00,,,0.00,,2013-03-25 03:12:00,
2013-03-25 03:22:00,27.0,25.0,-100.00,NNW,340,14.0,19.0,89,0.00,,,0.00,,2013-03-25 03:22:00,
2013-03-25 03:33:00,27.0,25.0,-100.00,NNW,340,16.0,19.0,90,0.00,,,0.00,,2013-03-25 03:33:00,
2013-03-25 03:42:00,27.0,25.0,-100.00,NNW,335,15.0,20.0,91,0.00,,,0.00,,2013-03-25 03:42:00,
2013-03-25 03:52:00,27.0,25.0,-100.00,NNW,345,16.0,19.0,91,0.00,,,0.00,,2013-03-25 03:52:00,
2013-03-25 04:02:00,27.0,25.0,-100.00,NNW,340,16.0,19.0,92,0.00,,,0.00,,2013-03-25 04:02:00,
2013-03-25 04:12:00,27.0,25.0,-100.00,NNW,340,13.0,19.0,92,0.00,,,0.00,,2013-03-25 04:12:00,
2013-03-25 04:22:00,27.0,25.0,-100.00,NNW,345,11.0,15.0,93,0.00,,,0.00,,2013-03-25 04:22:00,
2013-03-25 04:33:00,27.0,25.0,-100.00,NNW,340,11.0,15.0,93,0.00,,,0.00,,2013-03-25 04:33:00,
2013-03-25 04:42:00,27.0,25.0,-100.00,NNW,345,12.0,14.0,94,0.00,,,0.00,,2013-03-25 04:42:00,
2013-03-25 04:52:00,26.0,25.0,-100.00,NNW,340,12.0,14.0,95,0.00,,,0.00,,2013-03-25 04:52:00,
2013-03-25 05:03:00,26.0,25.0,-100.00,NNW,345,11.0,14.0,95,0.00,,,0.00,,2013-03-25 05:03:00,
2013-03-25 05:12:00,26.0,25.0,-100.00,NNW,340,11.0,13.0,96,0.00,,,0.00,,2013-03-25 05:12:00,
2013-03-25 05:22:00,26.0,25.0,-100.00,NNW,340,10.0,12.0,96,0.00,,,0.00,,2013-03-25 05:22:00,
2013-03-25 05:32:00,26.0,25.0,-100.00,NNW,345,11.0,13.0,96,0.00,,,0.00,,2013-03-25 05:32:00,
2013-03-25 05:42:00,26.0,25.0,-100.00,NNW,345,12.0,14.0,96,0.00,,,0.00,,2013-03-25 05:42:00,
2013-03-25 05:52:00,26.0,25.0,-100.00,NNW,340,10.0,13.0,96,0.00,,,0.00,,2013-03-25 05:52:00,
2013-03-25 06:02:00,26.0,25.0,-100.00,NNW,340,13.0,16.0,96,0.00,,,0.00,,2013-03-25 06:02:00,
2013-03-25 06:12:00,26.0,25.0,-100.00,North,350,12.0,16.0,96,0.00,,,0.00,,2013-03-25 06:12:00,
2013-03-25 06:22:00,27.0,25.0,-100.00,NNW,345,9.0,13.0,96,0.00,,,0.00,,2013-03-25 06:22:00,
2013-03-25 06:32:00,27.0,25.0,-100.00,NNW,345,9.0,12.0,96,0.00,,,0.00,,2013-03-25 06:32:00,
2013-03-25 06:42:00,27.0,25.0,-100.00,NNW,340,13.0,18.0,94,0.00,,,0.00,,2013-03-25 06:42:00,
2013-03-25 06:52:00,27.0,25.0,-100.00,NNW,345,12.0,19.0,93,0.00,,,0.00,,2013-03-25 06:52:00,
2013-03-25 07:02:00,27.0,25.0,-100.00,North,0,9.0,15.0,92,0.00,,,0.00,,2013-03-25 07:02:00,
2013-03-25 07:12:00,27.0,25.0,-100.00,North,0,10.0,14.0,91,0.00,,,0.00,,2013-03-25 07:12:00,
2013-03-25 07:22:00,27.0,25.0,-100.00,NNE,15,7.0,14.0,88,0.00,,,0.00,,2013-03-25 07:22:00,
2013-03-25 07:32:00,27.0,25.0,-100.00,North,5,6.0,9.0,88,0.00,,,0.00,,2013-03-25 07:32:00,
2013-03-25 07:42:00,27.0,25.0,-100.00,North,5,7.0,10.0,88,0.00,,,0.00,,2013-03-25 07:42:00,
2013-03-25 07:52:00,27.0,25.0,-100.00,North,5,4.0,9.0,88,0.00,,,0.00,,2013-03-25 07:52:00,
2013-03-25 08:02:00,27.0,23.0,-100.00,NNW,340,6.0,7.0,88,0.00,,,0.00,,2013-03-25 08:02:00,
2013-03-25 08:12:00,27.0,23.0,-100.00,North,0,7.0,9.0,89,0.00,,,0.00,,2013-03-25 08:12:00,
2013-03-25 08:22:00,27.0,23.0,-100.00,North,0,7.0,9.0,88,0.00,,,0.00,,2013-03-25 08:22:00,
2013-03-25 08:32:00,26.0,23.0,-100.00,North,0,6.0,10.0,87,0.00,,,0.00,,2013-03-25 08:32:00,
2013-03-25 08:42:00,26.0,23.0,-100.00,North,350,7.0,11.0,87,0.00,,,0.00,,2013-03-25 08:42:00,
2013-03-25 08:52:00,26.0,23.0,-100.00,NNW,340,11.0,13.0,86,0.00,,,0.00,,2013-03-25 08:52:00,
2013-03-25 09:02:00,26.0,23.0,-100.00,NNW,340,9.0,12.0,87,0.00,,,0.00,,2013-03-25 09:02:00,
2013-03-25 09:12:00,26.0,23.0,-100.00,North,0,9.0,12.0,87,0.00,,,0.00,,2013-03-25 09:12:00,
2013-03-25 09:22:00,26.0,23.0,-100.00,NNW,340,8.0,11.0,87,0.00,,,0.00,,2013-03-25 09:22:00,
2013-03-25 09:33:00,26.0,23.0,-100.00,NNW,345,10.0,12.0,87,0.00,,,0.00,,2013-03-25 09:33:00,
2013-03-25 09:42:00,26.0,23.0,-100.00,NNW,345,9.0,12.0,87,0.00,,,0.00,,2013-03-25 09:42:00,
2013-03-25 09:52:00,26.0,21.0,-100.00,NNW,345,10.0,14.0,87,0.00,,,0.00,,2013-03-25 09:52:00,
2013-03-25 10:03:00,25.0,21.0,-100.00,NNW,345,11.0,14.0,87,0.00,,,0.00,,2013-03-25 10:03:00,
2013-03-25 10:12:00,25.0,21.0,-100.00,NNW,340,11.0,14.0,87,0.00,,,0.00,,2013-03-25 10:12:00,
2013-03-25 10:22:00,25.0,21.0,-100.00,NNW,345,11.0,15.0,87,0.00,,,0.00,,2013-03-25 10:22:00,
2013-03-25 10:32:00,25.0,21.0,-100.00,NNW,340,12.0,14.0,87,0.00,,,0.00,,2013-03-25 10:32:00,
2013-03-25 10:42:00,25.0,21.0,-100.00,NNW,340,12.0,16.0,87,0.00,,,0.00,,2013-03-25 10:42:00,
2013-03-25 10:53:00,25.0,21.0,-100.00,NNW,340,12.0,16.0,87,0.00,,,0.00,,2013-03-25 10:53:00,
2013-03-25 11:03:00,25.0,21.0,-100.00,NNW,335,13.0,15.0,87,0.00,,,0.00,,2013-03-25 11:03:00,
2013-03-25 11:12:00,25.0,21.0,-100.00,NNW,340,14.0,17.0,87,0.00,,,0.00,,2013-03-25 11:12:00,
2013-03-25 11:23:00,25.0,21.0,-100.00,NNW,335,14.0,18.0,87,0.00,,,0.00,,2013-03-25 11:23:00,
2013-03-25 11:32:00,25.0,21.0,-100.00,NNW,330,13.0,18.0,88,0.00,,,0.00,,2013-03-25 11:32:00,
2013-03-25 11:42:00,25.0,21.0,-100.00,NNW,335,13.0,17.0,88,0.00,,,0.00,,2013-03-25 11:42:00,
2013-03-25 11:52:00,25.0,21.0,-100.00,NNW,340,14.0,19.0,88,0.00,,,0.00,,2013-03-25 11:52:00,
2013-03-25 12:02:00,24.0,21.0,-100.00,NNW,335,14.0,17.0,88,0.00,,,0.00,,2013-03-25 12:02:00,
2013-03-25 12:12:00,24.0,21.0,-100.00,NNW,340,16.0,19.0,88,0.00,,,0.00,,2013-03-25 12:12:00,
2013-03-25 12:23:00,24.0,21.0,-100.00,NNW,340,15.0,21.0,88,0.00,,,0.00,,2013-03-25 12:23:00,
2013-03-25 12:32:00,24.0,21.0,-100.00,NNW,335,14.0,19.0,88,0.00,,,0.00,,2013-03-25 12:32:00,
2013-03-25 12:42:00,24.0,21.0,-100.00,NNW,340,13.0,19.0,88,0.00,,,0.00,,2013-03-25 12:42:00,
2013-03-25 12:52:00,24.0,21.0,-100.00,NNW,340,15.0,18.0,88,0.00,,,0.00,,2013-03-25 12:52:00,
2013-03-25 13:02:00,24.0,21.0,-100.00,NNW,335,15.0,18.0,87,0.00,,,0.00,,2013-03-25 13:02:00,
2013-03-25 13:12:00,24.0,21.0,-100.00,NNW,335,15.0,19.0,87,0.00,,,0.00,,2013-03-25 13:12:00,
2013-03-25 13:22:00,24.0,21.0,-100.00,NNW,340,15.0,20.0,87,0.00,,,0.00,,2013-03-25 13:22:00,
2013-03-25 13:32:00,24.0,21.0,-100.00,NNW,340,14.0,17.0,87,0.00,,,0.00,,2013-03-25 13:32:00,
2013-03-25 13:42:00,24.0,21.0,-100.00,NNW,335,14.0,17.0,86,0.00,,,0.00,,2013-03-25 13:42:00,
2013-03-25 13:52:00,25.0,21.0,-100.00,NNW,340,14.0,20.0,86,0.00,,,0.00,,2013-03-25 13:52:00,
2013-03-25 14:03:00,25.0,21.0,-100.00,NNW,340,16.0,19.0,87,0.00,,,0.00,,2013-03-25 14:03:00,
2013-03-25 14:12:00,25.0,21.0,-100.00,NNW,340,17.0,21.0,87,0.00,,,0.00,,2013-03-25 14:12:00,
2013-03-25 14:22:00,25.0,21.0,-100.00,NNW,340,16.0,21.0,87,0.00,,,0.00,,2013-03-25 14:22:00,
2013-03-25 14:32:00,25.0,21.0,-100.00,NNW,340,16.0,21.0,87,0.00,,,0.00,,2013-03-25 14:32:00,
2013-03-25 14:42:00,25.0,21.0,-100.00,NNW,340,16.0,21.0,87,0.00,,,0.00,,2013-03-25 14:42:00,
2013-03-25 14:52:00,25.0,23.0,-100.00,NNW,340,16.0,19.0,87,0.00,,,0.00,,2013-03-25 14:52:00,
2013-03-25 15:02:00,26.0,23.0,-100.00,NNW,340,17.0,21.0,87,0.00,,,0.00,,2013-03-25 15:02:00,
2013-03-25 15:12:00,26.0,23.0,-100.00,NNW,340,16.0,20.0,86,0.00,,,0.00,,2013-03-25 15:12:00,
2013-03-25 15:22:00,26.0,23.0,-100.00,NNW,345,16.0,19.0,85,0.00,,,0.00,,2013-03-25 15:22:00,
2013-03-25 15:32:00,27.0,23.0,-100.00,North,350,12.0,18.0,84,0.00,,,0.00,,2013-03-25 15:32:00,
2013-03-25 15:42:00,27.0,23.0,-100.00,NNW,340,15.0,19.0,83,0.00,,,0.00,,2013-03-25 15:42:00,
2013-03-25 15:53:00,27.0,23.0,-100.00,NNW,340,15.0,19.0,83,0.00,,,0.00,,2013-03-25 15:53:00,
2013-03-25 16:03:00,27.0,23.0,-100.00,NNW,340,14.0,20.0,82,0.00,,,0.00,,2013-03-25 16:03:00,
2013-03-25 16:12:00,27.0,23.0,-100.00,NNW,345,14.0,20.0,82,0.00,,,0.00,,2013-03-25 16:12:00,
2013-03-25 16:23:00,27.0,23.0,-100.00,NNW,340,16.0,19.0,81,0.00,,,0.00,,2013-03-25 16:23:00,
2013-03-25 16:33:00,28.0,23.0,-100.00,NNW,340,14.0,19.0,80,0.00,,,0.00,,2013-03-25 16:33:00,
2013-03-25 16:42:00,28.0,23.0,-100.00,NNW,340,16.0,20.0,80,0.00,,,0.00,,2013-03-25 16:42:00,
2013-03-25 16:52:00,28.0,23.0,-100.00,NNW,340,16.0,19.0,79,0.00,,,0.00,,2013-03-25 16:52:00,
2013-03-25 17:02:00,29.0,23.0,-100.00,NNW,340,15.0,19.0,78,0.00,,,0.00,,2013-03-25 17:02:00,
2013-03-25 17:12:00,29.0,23.0,-100.00,NNW,340,16.0,20.0,77,0.00,,,0.00,,2013-03-25 17:12:00,
2013-03-25 17:23:00,29.0,23.0,-100.00,NNW,340,17.0,19.0,76,0.00,,,0.00,,2013-03-25 17:23:00,
2013-03-25 17:32:00,29.0,23.0,-100.00,NNW,335,16.0,19.0,75,0.00,,,0.00,,2013-03-25 17:32:00,
2013-03-25 17:42:00,30.0,23.0,-100.00,NNW,340,15.0,19.0,74,0.00,,,0.00,,2013-03-25 17:42:00,
2013-03-25 17:52:00,30.0,23.0,-100.00,NNW,340,17.0,20.0,73,0.00,,,0.00,,2013-03-25 17:52:00,
2013-03-25 18:03:00,30.0,23.0,-100.00,NNW,340,17.0,21.0,71,0.00,,,0.00,,2013-03-25 18:03:00,
2013-03-25 18:12:00,31.0,23.0,-100.00,NNW,340,16.0,21.0,71,0.00,,,0.00,,2013-03-25 18:12:00,
2013-03-25 18:22:00,31.0,21.0,-100.00,NNW,335,16.0,21.0,68,0.00,,,0.00,,2013-03-25 18:22:00,
2013-03-25 18:32:00,31.0,21.0,-100.00,NNW,340,17.0,21.0,68,0.00,,,0.00,,2013-03-25 18:32:00,
2013-03-25 18:42:00,31.0,21.0,-100.00,NNW,340,15.0,22.0,67,0.00,,,0.00,,2013-03-25 18:42:00,
2013-03-25 18:52:00,31.0,21.0,-100.00,NNW,330,14.0,20.0,67,0.00,,,0.00,,2013-03-25 18:52:00,
2013-03-25 19:02:00,31.0,21.0,-100.00,NNW,335,16.0,19.0,66,0.00,,,0.00,,2013-03-25 19:02:00,
2013-03-25 19:12:00,32.0,21.0,-100.00,NNW,330,13.0,18.0,66,0.00,,,0.00,,2013-03-25 19:12:00,
2013-03-25 19:22:00,32.0,21.0,-100.00,NW,325,14.0,17.0,66,0.00,,,0.00,,2013-03-25 19:22:00,
2013-03-25 19:33:00,32.0,21.0,-100.00,NNW,330,14.0,17.0,65,0.00,,,0.00,,2013-03-25 19:33:00,
2013-03-25 19:42:00,32.0,21.0,-100.00,NNW,335,15.0,18.0,65,0.00,,,0.00,,2013-03-25 19:42:00,
2013-03-25 19:52:00,31.0,21.0,-100.00,NW,325,17.0,19.0,65,0.00,,,0.00,,2013-03-25 19:52:00,
2013-03-25 20:02:00,32.0,21.0,-100.00,NW,320,15.0,19.0,65,0.00,,,0.00,,2013-03-25 20:02:00,
2013-03-25 20:12:00,32.0,21.0,-100.00,NW,325,16.0,21.0,66,0.00,,,0.00,,2013-03-25 20:12:00,
2013-03-25 20:22:00,32.0,21.0,-100.00,NNW,340,16.0,19.0,65,0.00,,,0.00,,2013-03-25 20:22:00,
2013-03-25 20:32:00,31.0,21.0,-100.00,NW,325,18.0,21.0,67,0.00,,,0.00,,2013-03-25 20:32:00,
2013-03-25 20:42:00,31.0,21.0,-100.00,NW,325,14.0,20.0,67,0.00,,,0.00,,2013-03-25 20:42:00,
2013-03-25 20:52:00,31.0,21.0,-100.00,NW,320,16.0,20.0,68,0.00,,,0.00,,2013-03-25 20:52:00,
2013-03-25 21:02:00,32.0,23.0,-100.00,NW,325,17.0,19.0,68,0.00,,,0.00,,2013-03-25 21:02:00,
2013-03-25 21:12:00,32.0,23.0,-100.00,NW,320,15.0,18.0,68,0.00,,,0.00,,2013-03-25 21:12:00,
2013-03-25 21:22:00,32.0,23.0,-100.00,NW,325,13.0,17.0,67,0.00,,,0.00,,2013-03-25 21:22:00,
2013-03-25 21:33:00,32.0,21.0,-100.00,NW,325,15.0,19.0,67,0.00,,,0.00,,2013-03-25 21:33:00,
2013-03-25 21:42:00,32.0,21.0,-100.00,NW,325,14.0,17.0,66,0.00,,,0.00,,2013-03-25 21:42:00,
2013-03-25 21:52:00,32.0,21.0,-100.00,NW,320,12.0,17.0,65,0.00,,,0.00,,2013-03-25 21:52:00,
2013-03-25 22:03:00,32.0,21.0,-100.00,NW,325,14.0,18.0,66,0.00,,,0.00,,2013-03-25 22:03:00,
2013-03-25 22:12:00,32.0,23.0,-100.00,NW,320,14.0,17.0,67,0.00,,,0.00,,2013-03-25 22:12:00,
2013-03-25 22:23:00,32.0,23.0,-100.00,NW,320,13.0,16.0,66,0.00,,,0.00,,2013-03-25 22:23:00,
2013-03-25 22:32:00,32.0,21.0,-100.00,NW,325,14.0,17.0,67,0.00,,,0.00,,2013-03-25 22:32:00,
2013-03-25 22:42:00,32.0,23.0,-100.00,NW,320,15.0,17.0,67,0.00,,,0.00,,2013-03-25 22:42:00,
2013-03-25 22:52:00,32.0,21.0,-100.00,WNW,300,13.0,19.0,66,0.00,,,0.00,,2013-03-25 22:52:00,
2013-03-25 23:02:00,30.0,23.0,-100.00,WNW,300,16.0,21.0,73,0.00,,,0.00,,2013-03-25 23:02:00,
2013-03-25 23:12:00,30.0,23.0,-100.00,WNW,300,17.0,22.0,76,0.00,,,0.00,,2013-03-25 23:12:00,
2013-03-25 23:22:00,29.0,23.0,-100.00,NW,305,16.0,21.0,78,0.00,,,0.00,,2013-03-25 23:22:00,
2013-03-25 23:32:00,29.0,23.0,-100.00,WNW,300,19.0,22.0,80,0.00,,,0.00,,2013-03-25 23:32:00,
2013-03-25 23:42:00,29.0,23.0,-100.00,WNW,300,17.0,21.0,81,0.00,,,0.00,,2013-03-25 23:42:00,
2013-03-25 23:52:00,28.0,23.0,-100.00,NW,305,17.0,21.0,82,0.00,,,0.00,,2013-03-25 23:52:00,